KLM44M TJSJ-TNCM

Flight info

Callsign KLM44M
Flight time 0h 54m
Altitude 19000
Route JETSS1 JETSS Y290 SLUGO ULUBA1
Aircraft B738/M-SDE2E3FGHIRWXY/LB1

Departure

Time 2026-05-04 23:04
Airport Luis Munoz Marin International Airport (TJSJ)

Arrival

Time 2026-05-04 23:59
Airport Princess Juliana International Airport (TNCM)
Time Latitude Longitude Altitude Speed Heading
2026-05-04 22:41 18.43617 -66.00187 17 ft 0 kts
2026-05-04 22:53 18.43610 -66.00188 17 ft 2 kts
2026-05-04 22:53 18.43593 -66.00190 17 ft 3 kts 15°
2026-05-04 22:53 18.43575 -66.00199 17 ft 3 kts 34°
2026-05-04 22:53 18.43560 -66.00213 17 ft 3 kts 52°
2026-05-04 22:54 18.43555 -66.00220 17 ft 0 kts 57°
2026-05-04 22:56 18.43575 -66.00194 17 ft 10 kts 104°
2026-05-04 22:56 18.43533 -66.00097 17 ft 17 kts 102°
2026-05-04 22:57 18.43574 -66.00054 17 ft 5 kts 346°
2026-05-04 22:57 18.43596 -66.00066 17 ft 0 kts 335°
2026-05-04 22:57 18.43633 -66.00099 17 ft 16 kts 340°
2026-05-04 22:57 18.43724 -66.00112 17 ft 10 kts
2026-05-04 22:58 18.43807 -66.00108 17 ft 19 kts
2026-05-04 22:58 18.44060 -66.00151 17 ft 42 kts 342°
2026-05-04 22:58 18.44142 -66.00182 17 ft 12 kts 338°
2026-05-04 22:58 18.44238 -66.00237 17 ft 11 kts 296°
2026-05-04 22:59 18.44235 -66.00309 17 ft 24 kts 246°
2026-05-04 22:59 18.44152 -66.00505 17 ft 29 kts 246°
2026-05-04 22:59 18.44059 -66.00709 17 ft 41 kts 247°
2026-05-04 22:59 18.43947 -66.01003 17 ft 41 kts 249°
2026-05-04 23:00 18.43829 -66.01242 17 ft 33 kts 236°
2026-05-04 23:00 18.43796 -66.01387 17 ft 17 kts 255°
2026-05-04 23:00 18.43818 -66.01442 17 ft 0 kts 336°
2026-05-04 23:02 18.43896 -66.01440 17 ft 14 kts 65°
2026-05-04 23:02 18.43899 -66.01433 17 ft 0 kts 72°
2026-05-04 23:03 18.43919 -66.01379 17 ft 27 kts 67°
2026-05-04 23:03 18.44059 -66.01034 17 ft 37 kts 67°
2026-05-04 23:03 18.44244 -66.00578 17 ft 111 kts 67°
2026-05-04 23:04 18.44645 -65.99577 94 ft 176 kts 67°
2026-05-04 23:04 18.45098 -65.98456 1201 ft 156 kts 67°
2026-05-04 23:04 18.45506 -65.97361 2018 ft 178 kts 69°
2026-05-04 23:04 18.46042 -65.95912 1064 ft 256 kts 69°
2026-05-04 23:05 18.46665 -65.93885 1426 ft 283 kts 83°
2026-05-04 23:05 18.46490 -65.91959 3126 ft 268 kts 100°
2026-05-04 23:05 18.46160 -65.90019 3949 ft 278 kts 99°
2026-05-04 23:05 18.45978 -65.88085 4797 ft 284 kts 86°
2026-05-04 23:06 18.46327 -65.86279 5058 ft 308 kts 69°
2026-05-04 23:06 18.47361 -65.84211 5120 ft 340 kts 54°
2026-05-04 23:06 18.48793 -65.82142 5592 ft 354 kts 51°
2026-05-04 23:06 18.50188 -65.80117 6011 ft 333 kts 53°
2026-05-04 23:07 18.51436 -65.78056 6879 ft 333 kts 58°
2026-05-04 23:07 18.52530 -65.75936 8158 ft 323 kts 62°
2026-05-04 23:07 18.53481 -65.73832 9415 ft 313 kts 63°
2026-05-04 23:07 18.54423 -65.71796 10506 ft 310 kts 62°
2026-05-04 23:08 18.55325 -65.69686 10991 ft 328 kts 65°
2026-05-04 23:08 18.56239 -65.67369 11299 ft 350 kts 66°
2026-05-04 23:08 18.57165 -65.64921 11719 ft 366 kts 67°
2026-05-04 23:08 18.57764 -65.63306 12217 ft 368 kts 67°
2026-05-04 23:09 18.58680 -65.60808 13020 ft 372 kts 68°
2026-05-04 23:09 18.59614 -65.58236 13773 ft 376 kts 68°
2026-05-04 23:09 18.60547 -65.55646 14507 ft 380 kts 68°
2026-05-04 23:09 18.61468 -65.53079 15208 ft 384 kts 68°
2026-05-04 23:10 18.62429 -65.50391 15962 ft 387 kts 68°
2026-05-04 23:10 18.63383 -65.47718 16816 ft 385 kts 68°
2026-05-04 23:10 18.64320 -65.45085 17638 ft 385 kts 68°
2026-05-04 23:10 18.65265 -65.42429 18366 ft 386 kts 68°
2026-05-04 23:11 18.66193 -65.39804 18778 ft 388 kts 69°
2026-05-04 23:11 18.66682 -65.37013 18932 ft 388 kts 88°
2026-05-04 23:11 18.66551 -65.34177 18950 ft 387 kts 96°
2026-05-04 23:11 18.66247 -65.31387 18945 ft 384 kts 98°
2026-05-04 23:12 18.65860 -65.28602 18944 ft 383 kts 99°
2026-05-04 23:12 18.65443 -65.25815 18944 ft 383 kts 99°
2026-05-04 23:12 18.65018 -65.23036 18944 ft 383 kts 100°
2026-05-04 23:12 18.64587 -65.20263 18944 ft 383 kts 100°
2026-05-04 23:13 18.64149 -65.17486 18944 ft 383 kts 100°
2026-05-04 23:13 18.63708 -65.14715 18944 ft 383 kts 100°
2026-05-04 23:13 18.63264 -65.11953 18944 ft 383 kts 100°
2026-05-04 23:13 18.62815 -65.09175 18944 ft 383 kts 100°
2026-05-04 23:14 18.62370 -65.06437 18944 ft 383 kts 100°
2026-05-04 23:14 18.61911 -65.03629 18944 ft 383 kts 100°
2026-05-04 23:14 18.61459 -65.00861 18944 ft 383 kts 100°
2026-05-04 23:14 18.61017 -64.98123 18944 ft 383 kts 100°
2026-05-04 23:15 18.60571 -64.95368 18944 ft 383 kts 100°
2026-05-04 23:15 18.60120 -64.92600 18944 ft 383 kts 100°
2026-05-04 23:15 18.59667 -64.89832 18944 ft 383 kts 100°
2026-05-04 23:15 18.59214 -64.87066 18944 ft 383 kts 100°
2026-05-04 23:16 18.58759 -64.84297 18944 ft 383 kts 100°
2026-05-04 23:16 18.58302 -64.81525 18944 ft 384 kts 100°
2026-05-04 23:16 18.57842 -64.78735 18943 ft 387 kts 100°
2026-05-04 23:16 18.57536 -64.76884 18944 ft 386 kts 100°
2026-05-04 23:17 18.57075 -64.74093 18944 ft 386 kts 101°
2026-05-04 23:17 18.56461 -64.70393 18944 ft 386 kts 101°
2026-05-04 23:17 18.56148 -64.68503 18944 ft 386 kts 101°
2026-05-04 23:17 18.55685 -64.65718 18944 ft 386 kts 101°
2026-05-04 23:18 18.55221 -64.62928 18944 ft 386 kts 101°
2026-05-04 23:18 18.54758 -64.60142 18944 ft 386 kts 101°
2026-05-04 23:18 18.54295 -64.57369 18919 ft 386 kts 101°
2026-05-04 23:18 18.53829 -64.54572 18705 ft 387 kts 101°
2026-05-04 23:19 18.53361 -64.51773 18187 ft 389 kts 101°
2026-05-04 23:19 18.52893 -64.48974 17957 ft 383 kts 101°
2026-05-04 23:19 18.52438 -64.46256 18366 ft 372 kts 101°
2026-05-04 23:19 18.51999 -64.43632 19397 ft 360 kts 101°
2026-05-04 23:20 18.51530 -64.40990 19659 ft 373 kts 102°
2026-05-04 23:20 18.51008 -64.38276 19865 ft 378 kts 102°
2026-05-04 23:20 18.50459 -64.35585 19776 ft 376 kts 103°
2026-05-04 23:20 18.49887 -64.32906 19176 ft 382 kts 104°
2026-05-04 23:21 18.49270 -64.30129 18108 ft 398 kts 104°
2026-05-04 23:21 18.48604 -64.27222 16801 ft 418 kts 104°
2026-05-04 23:21 18.47892 -64.24209 16255 ft 415 kts 105°
2026-05-04 23:21 18.47130 -64.21400 16698 ft 384 kts 110°
2026-05-04 23:22 18.46190 -64.18860 16991 ft 360 kts 111°
2026-05-04 23:22 18.45425 -64.16395 16940 ft 349 kts 109°
2026-05-04 23:22 18.44710 -64.13990 16875 ft 338 kts 108°
2026-05-04 23:22 18.44034 -64.11645 16725 ft 332 kts 108°
2026-05-04 23:23 18.43378 -64.09324 16448 ft 329 kts 108°
2026-05-04 23:23 18.42730 -64.07003 16054 ft 332 kts 107°
2026-05-04 23:23 18.42077 -64.04658 15591 ft 336 kts 107°
2026-05-04 23:23 18.41416 -64.02282 15123 ft 340 kts 107°
2026-05-04 23:24 18.40748 -63.99891 14710 ft 341 kts 107°
2026-05-04 23:24 18.40085 -63.97528 14383 ft 340 kts 108°
2026-05-04 23:24 18.39403 -63.95155 14110 ft 336 kts 111°
2026-05-04 23:24 18.38274 -63.93027 13929 ft 324 kts 126°
2026-05-04 23:25 18.38787 -63.92030 13918 ft 314 kts
2026-05-04 23:25 18.40912 -63.91942 14005 ft 302 kts 358°
2026-05-04 23:25 18.42995 -63.91810 13893 ft 299 kts
2026-05-04 23:25 18.44992 -63.91104 13429 ft 316 kts 31°
2026-05-04 23:26 18.46399 -63.89407 13806 ft 294 kts 61°
2026-05-04 23:26 18.46908 -63.87579 15010 ft 237 kts 81°
2026-05-04 23:26 18.46509 -63.85789 14499 ft 286 kts 121°
2026-05-04 23:26 18.45442 -63.83828 13985 ft 325 kts 123°
2026-05-04 23:27 18.44221 -63.81764 13655 ft 335 kts 125°
2026-05-04 23:27 18.42936 -63.79716 13375 ft 343 kts 126°
2026-05-04 23:27 18.41603 -63.77679 13163 ft 347 kts 127°
2026-05-04 23:27 18.40196 -63.75600 13063 ft 347 kts 128°
2026-05-04 23:28 18.38778 -63.73558 13083 ft 344 kts 129°
2026-05-04 23:28 18.37358 -63.71556 13181 ft 338 kts 129°
2026-05-04 23:28 18.35949 -63.69602 13292 ft 332 kts 130°
2026-05-04 23:28 18.34544 -63.67683 13360 ft 329 kts 130°
2026-05-04 23:29 18.33140 -63.65790 13356 ft 328 kts 130°
2026-05-04 23:29 18.31742 -63.63927 13283 ft 330 kts 131°
2026-05-04 23:29 18.30286 -63.62008 13162 ft 333 kts 131°
2026-05-04 23:29 18.28822 -63.60098 13034 ft 336 kts 131°
2026-05-04 23:30 18.27346 -63.58190 12933 ft 338 kts 131°
2026-05-04 23:30 18.25855 -63.56277 12860 ft 338 kts 132°
2026-05-04 23:30 18.24344 -63.54341 12191 ft 357 kts 131°
2026-05-04 23:30 18.22714 -63.52247 11197 ft 382 kts 131°
2026-05-04 23:31 18.20977 -63.50021 10161 ft 403 kts 131°
2026-05-04 23:31 18.19178 -63.47717 9304 ft 409 kts 131°
2026-05-04 23:31 18.17386 -63.45423 8807 ft 399 kts 131°
2026-05-04 23:31 18.15672 -63.43226 8838 ft 375 kts 131°
2026-05-04 23:32 18.14323 -63.41493 8990 ft 0 kts 131°
2026-05-04 23:32 18.12940 -63.39840 9429 ft 332 kts 134°
2026-05-04 23:32 18.11289 -63.38070 8422 ft 352 kts 139°
2026-05-04 23:32 18.09484 -63.36262 7384 ft 367 kts 138°
2026-05-04 23:33 18.07612 -63.34313 5980 ft 389 kts 136°
2026-05-04 23:33 18.05718 -63.32273 5520 ft 378 kts 134°
2026-05-04 23:33 18.04069 -63.30416 6014 ft 308 kts 134°
2026-05-04 23:33 18.02934 -63.28881 6634 ft 226 kts 127°
2026-05-04 23:34 18.02159 -63.27587 6637 ft 207 kts 124°
2026-05-04 23:34 18.01429 -63.26277 6341 ft 211 kts 123°
2026-05-04 23:34 18.00654 -63.24947 6083 ft 215 kts 123°
2026-05-04 23:34 17.99860 -63.23637 5979 ft 210 kts 124°
2026-05-04 23:35 17.99067 -63.22363 5943 ft 202 kts 125°
2026-05-04 23:35 17.98305 -63.21164 5890 ft 198 kts 125°
2026-05-04 23:35 17.97528 -63.19959 5872 ft 200 kts 126°
2026-05-04 23:35 17.96748 -63.18762 5956 ft 196 kts 126°
2026-05-04 23:36 17.96008 -63.17588 6026 ft 195 kts 121°
2026-05-04 23:36 17.95628 -63.16123 5511 ft 223 kts 94°
2026-05-04 23:36 17.95666 -63.14435 4841 ft 241 kts 82°
2026-05-04 23:36 17.96051 -63.12788 4883 ft 220 kts 66°
2026-05-04 23:37 17.96373 -63.11202 4706 ft 220 kts 77°
2026-05-04 23:37 17.96721 -63.09666 4666 ft 212 kts 73°
2026-05-04 23:37 17.97255 -63.08272 4565 ft 208 kts 57°
2026-05-04 23:37 17.98395 -63.07091 4018 ft 242 kts 34°
2026-05-04 23:38 17.99984 -63.07026 3924 ft 223 kts
2026-05-04 23:38 18.01518 -63.06987 3590 ft 215 kts
2026-05-04 23:38 18.02959 -63.07102 3275 ft 209 kts 348°
2026-05-04 23:38 18.04158 -63.08035 2542 ft 221 kts 305°
2026-05-04 23:39 18.04496 -63.09559 2013 ft 220 kts 262°
2026-05-04 23:39 18.04434 -63.09895 1905 ft 220 kts 258°
2026-05-04 23:39 18.04415 -63.09999 1873 ft 220 kts 259°
2026-05-04 23:39 18.04152 -63.11536 1739 ft 207 kts 259°
2026-05-04 23:40 18.03930 -63.11922 1615 ft 209 kts 258°
2026-05-04 23:41 18.04334 -63.08998 1565 ft 210 kts 258°
2026-05-04 23:41 18.04082 -63.10636 503 ft 247 kts 262°
2026-05-04 23:41 18.04177 -63.10118 402 ft 200 kts 264°
2026-05-04 23:42 18.04087 -63.11026 167 ft 240 kts 260°
2026-05-04 23:42 18.04216 -63.09897 252 ft 246 kts 261°
2026-05-04 23:42 18.03987 -63.11604 170 ft 225 kts 261°
2026-05-04 23:42 18.03942 -63.11916 155 ft 219 kts 261°
2026-05-04 23:43 18.03849 -63.12569 173 ft 205 kts 261°
2026-05-04 23:43 18.03650 -63.13925 284 ft 172 kts 262°
2026-05-04 23:43 18.03493 -63.15236 466 ft 198 kts 263°
2026-05-04 23:43 18.03346 -63.16704 1275 ft 200 kts 263°
2026-05-04 23:44 18.02920 -63.18110 2117 ft 200 kts 251°
2026-05-04 23:44 18.02028 -63.18802 2826 ft 135 kts 192°
2026-05-04 23:44 18.01077 -63.18355 2277 ft 196 kts 126°
2026-05-04 23:44 18.00935 -63.16877 2536 ft 224 kts 75°
2026-05-04 23:45 18.03214 -63.12275 2338 ft 251 kts 62°
2026-05-04 23:45 18.04066 -63.10399 1331 ft 307 kts 69°
2026-05-04 23:45 18.04046 -63.08402 2007 ft 283 kts 109°
2026-05-04 23:45 18.02515 -63.07390 3007 ft 218 kts 175°
2026-05-04 23:46 18.01202 -63.07397 5482 ft 185 kts 186°
2026-05-04 23:46 17.99872 -63.07740 4983 ft 211 kts 213°
2026-05-04 23:46 17.98791 -63.08995 4264 ft 255 kts 240°
2026-05-04 23:46 17.97789 -63.10616 2986 ft 279 kts 232°
2026-05-04 23:47 17.96677 -63.12072 3333 ft 235 kts 234°
2026-05-04 23:47 17.95621 -63.13315 3253 ft 218 kts 224°
2026-05-04 23:47 17.94578 -63.14327 3365 ft 193 kts 226°
2026-05-04 23:47 17.94298 -63.15630 3158 ft 182 kts 280°
2026-05-04 23:48 17.94750 -63.16776 3171 ft 165 kts 296°
2026-05-04 23:48 17.95356 -63.17844 2734 ft 177 kts 308°
2026-05-04 23:48 17.95677 -63.18222 2605 ft 177 kts 312°
2026-05-04 23:49 17.95684 -63.18231 2605 ft 133 kts 312°
2026-05-04 23:49 17.97965 -63.25268 2605 ft 1105 kts 312°
2026-05-04 23:50 17.94553 -63.31103 2628 ft 173 kts 312°
2026-05-04 23:50 17.95589 -63.31661 1912 ft 189 kts 358°
2026-05-04 23:50 17.96828 -63.31264 1858 ft 175 kts 24°
2026-05-04 23:50 17.97917 -63.30640 1616 ft 189 kts 29°
2026-05-04 23:51 17.99165 -63.29998 1406 ft 201 kts 25°
2026-05-04 23:51 18.00388 -63.29379 1399 ft 205 kts 27°
2026-05-04 23:54 18.00903 -63.29081 1477 ft 200 kts 30°
2026-05-04 23:54 18.01927 -63.28142 1683 ft 192 kts 51°
2026-05-04 23:54 18.02299 -63.27518 1880 ft 177 kts 67°
2026-05-04 23:54 18.02369 -63.26323 2091 ft 150 kts 92°
2026-05-04 23:55 18.02351 -63.25310 2120 ft 131 kts 90°
2026-05-04 23:55 18.02340 -63.24336 1992 ft 146 kts 91°
2026-05-04 23:55 18.02439 -63.22261 1803 ft 133 kts 85°
2026-05-04 23:56 18.02562 -63.21305 1549 ft 133 kts 80°
2026-05-04 23:56 18.02689 -63.20336 1313 ft 133 kts 81°
2026-05-04 23:56 18.02793 -63.19394 1189 ft 125 kts 82°
2026-05-04 23:56 18.02959 -63.18371 1195 ft 154 kts 79°
2026-05-04 23:57 18.03119 -63.17347 1013 ft 140 kts 81°
2026-05-04 23:57 18.03262 -63.16376 756 ft 132 kts 81°
2026-05-04 23:57 18.03429 -63.15405 531 ft 140 kts 79°
2026-05-04 23:57 18.03588 -63.14364 429 ft 152 kts 81°
2026-05-04 23:58 18.03793 -63.13215 287 ft 165 kts 78°
2026-05-04 23:58 18.03922 -63.12064 94 ft 149 kts 82°
2026-05-04 23:58 18.04060 -63.11079 10 ft 126 kts 81°
2026-05-04 23:58 18.04177 -63.10263 8 ft 101 kts 82°
2026-05-04 23:59 18.03981 -63.11755 8 ft 7 kts 88°
2026-05-04 23:59 18.03991 -63.11635 8 ft 47 kts 73°
2026-05-04 23:59 18.04055 -63.11131 8 ft 70 kts 85°
2026-05-04 23:59 18.04050 -63.11163 8 ft 9 kts
2026-05-05 00:00 18.04104 -63.11171 8 ft 5 kts 349°
2026-05-05 00:00 18.04113 -63.11173 8 ft 3 kts 350°
2026-05-05 00:00 18.04118 -63.11174 8 ft 1 kts 350°
2026-05-05 00:00 18.04130 -63.11247 8 ft 14 kts 264°
2026-05-05 00:01 18.04147 -63.11301 8 ft 10 kts 323°